Location: Harwich
(41.7160°N, 69.9939°W)
Time: 00:43:03
(UTC+02:00)

AO-73 - Pass Details

Date: 18 September 2024
Orbit: 548 x 615 km, 97.7° (Epoch: 10 October)

Event Time Altitude Azimuth Distance (km) Brightness Sun altitude
Rises 11:14:28 0° 349° (N) 2,796 ? -13.6°
Reaches altitude 10° 11:18:19 10° 312° (NW) 1,871 ? -12.9°
Enters shadow 11:19:08 11° 300° (WNW) 1,819 ? -12.8°
